Regional Weather Roundup
Issued by NWS

Home | Current Version | Previous Version | Text Only | Print | Product List | Glossary Off
Versions: 1 2 3 4 5 6 7 8 9 10 11 12 13 14 15 16 17 18 19 20 21 22 23 24 25 26 27 28 29 30 31 32 33 34 35 36 37 38 39 40 41 42 43 44 45 46 47 48 49 50

000
ASUS45 KABQ 202310
RWRNM
NEW MEXICO REGIONAL WEATHER ROUNDUP
NATIONAL WEATHER SERVICE ALBUQUERQUE NM
400 PM MST MON FEB 20 2017

NOTE: "FAIR" MEANS FEW OR NO CLOUDS BELOW 12,000 FEET AGL WITH NO
       SIGNIFICANT WEATHER OR OBSTRUCTIONS TO VISION.

      THIS PRODUCT IS RELEASED AS TWO VERSIONS.  ONE VERSION NEAR
      THE TOP OF THE HOUR CONTAINING PRELIMINARY DATA FROM ALBUQUERQUE
      AND OTHER STATIONS.  A FINAL VERSION WITH ADDITIONAL DATA IS
      ISSUED ABOUT 10 MINUTES AFTER THE HOUR.

NMZ501-503-504-510>518-210000-
NORTHWEST PLATEAU/NORTHCENTRAL MOUNTAINS

CITY           SKY/WX    TMP DP  RH WIND       PRES   REMARKS
FARMINGTON     FAIR      54  30  40 W10       30.20S
LOS ALAMOS     FAIR      53  17  24 CALM      30.22R
SANTA FE       FAIR      58  15  18 N16G24    30.18R
TAOS             N/A     52  21  30 SW9       30.20R
ANGEL FIRE     FAIR      45  20  36 SW18      30.22R

$$
NMZ402-403-502-505>509-210000-
WESTCENTRAL MOUNTAINS/SOUTHWEST MOUNTAINS

CITY           SKY/WX    TMP DP  RH WIND       PRES   REMARKS
GALLUP         FAIR      50  33  52 S9        30.27F
GRANTS         FAIR      56  22  26 N10G18    30.24S
SILVER CITY    FAIR      59  31  35 W9        30.23S

$$
NMZ407-409-411-412-210000-
SOUTHERN DESERTS

CITY           SKY/WX    TMP DP  RH WIND       PRES   REMARKS
DEMING         FAIR      63  33  32 W12       30.21S
LAS CRUCES     FAIR      64  24  21 NW5       30.21S
HOLLOMAN AFB   FAIR      64  27  24 NW17      30.19S
ALAMOGORDO     FAIR      64  27  24 NW14G21   30.17S
T OR C         FAIR      62  27  26 S5        30.19S

$$
NMZ519>523-210000-
CENTRAL VALLEYS/CENTRAL HIGHLANDS

CITY           SKY/WX    TMP DP  RH WIND       PRES   REMARKS
ALBUQUERQUE    FAIR      60  25  26 NW15      30.19R
DOUBLE EAGLE   SUNNY     57  28  33 NW16      30.21R
MORIARTY ARPT  FAIR      59  24  26 NW9G17    30.20R
CLINES CORNERS FAIR      53  20  27 NW18      30.19S
BELEN          FAIR      60  24  25 NW7       30.20R
SOCORRO        FAIR      64  22  20 N9G17     30.18S

$$
NMZ524>526-539-540-210000-
SOUTHCENTRAL MOUNTAINS

CITY           SKY/WX    TMP DP  RH WIND       PRES   REMARKS
RUIDOSO        FAIR      55  19  24 NW16      30.23S

$$
NMZ527>531-210000-
NORTHEAST HIGHLANDS/NORTHEAST PLAINS

CITY           SKY/WX    TMP DP  RH WIND       PRES   REMARKS
LAS VEGAS      FAIR      58   9  14 N18G28    30.13S
RATON          FAIR      61   0   8 N8        30.07R
CLAYTON        FAIR      64   6  10 NW16      30.06R

$$
NMZ532>537-210000-
EASTCENTRAL PLAINS

CITY           SKY/WX    TMP DP  RH WIND       PRES   REMARKS
TUCUMCARI      FAIR      70  11  10 NW8       30.02S
CANNON AFB     FAIR      65  13  13 N12       30.06R
CLOVIS AIRPORT FAIR      64  23  20 NW13      30.06S

$$
NMZ028-029-538-210000-
SOUTHEAST PLAINS

CITY           SKY/WX    TMP DP  RH WIND       PRES   REMARKS
ROSWELL        FAIR      73  12   9 NW10        N/A
ARTESIA        FAIR      72  19  14 N13G24    30.08R
CARLSBAD       FAIR      72  22  15 N15G25    30.07R
HOBBS          SUNNY     68  21  17 NW16G23   30.07R


$$




USA.gov is the U.S. government's official web portal to all federal, state and local government web resources and services.